Location: G�yn�k
(36.6721°N, 30.5542°E)
Time: 08:56:21
(UTC+00:00)

PAYLOAD A - Pass Details

Date: 07 June 2020
Orbit: 692 x 832 km, 98.3° (Epoch: 05 July)

Event Time Altitude Azimuth Distance (km) Brightness Sun altitude
Rises 01:59:55 0° 11° (N) 3,089 7.9 -7.4°
Reaches altitude 10° 02:02:09 10° 11° (N) 2,178 7.1 -7.1°
Maximum altitude 02:06:55 83° 284° (WNW) 728 3.9 -6.3°
Drops below altitude 10° 02:11:49 10° 197° (SSW) 2,234 6.0 -5.5°
Sets 02:14:07 0° 196° (SSW) 3,175 6.7 -5.1°
